Hourly Data Report for March 23, 2016

DAWSON
YUKON TERRITORY

64°03'39.076" N
139°07'36.000" W
370.00 m
2100LRP
71966
WON

Download Data

Hourly Data (March 2016)
Hourly Data Report for March 23, 2016
TIME
LST
Temp Definition
°C
Dew Point Definition
°C
Rel Hum Definition
%
Precip. Amount Definition
mm

Wind Dir Definition
10's deg

Wind Spd Definition
km/h
Visibility Definition
km
Stn Press Definition
kPa
Hmdx Definition


Wind Chill Definition


Weather Definition


00:00 -7.6 -10.0 83 0.0 8 5   96.65   -10 LegendNANA
01:00 -7.7 -11.2 76 0.3 7 6   96.65   -11 LegendNANA
02:00 -7.7 -11.2 76 0.0 9 9   96.66   -12 LegendNANA
03:00 -8.3 -11.6 77 0.0 8 11   96.64   -14 LegendNANA
04:00 -9.0 -12.4 77 0.0 8 12   96.65   -15 LegendNANA
05:00 -10.2 -13.1 79 0.0 8 10   96.66   -15 LegendNANA
06:00 -11.3 -14.0 81 0.0 8 9   96.66   -16 LegendNANA
07:00 -11.2 -13.9 81 0.0 7 14   96.64   -18 LegendNANA
08:00 -12.3 -14.8 82 0.0 9 10   96.63   -18 LegendNANA
09:00 -10.1 -13.8 74 0.0 10 9   96.60   -15 LegendNANA
10:00 -6.1 -11.8 64 0.0 10 9   96.55   -10 LegendNANA
11:00 -3.1 -11.1 54 0.0 9 8   96.50   -6 LegendNANA
12:00 0.8 -10.6 42 0.0 10 4   96.42     LegendNANA
13:00 3.1 -10.4 36 0.0 8 15   96.35     LegendNANA
14:00 3.7 -9.7 37 0.0 8 21   96.29     LegendNANA
15:00 4.4 -8.8 38 0.0 7 21   96.23     LegendNANA
16:00 5.0 -8.5 37 0.0 7 19   96.16     LegendNANA
17:00 5.1 -7.6 39 0.0 6 17   96.10     LegendNANA
18:00 5.0 -8.5 37 0.0 8 13   96.08     LegendNANA
19:00 4.1 -8.7 39 0.0 4 7   96.06     LegendNANA
20:00 -2.0 -7.7 65 0.3 5 1   96.08   -2 LegendNANA
21:00 -4.6 -8.0 77 0.2   0   96.10     LegendNANA
22:00 -6.2 -9.7 76 0.2   0   96.15     LegendNANA
23:00 -5.3 -9.1 75 0.0 7 5   96.17   -8 LegendNANA

Notes on Data Quality.

Legend

  • E = Estimated
  • M = Missing
  • NA = Not Available*
  • [empty] = Indicates an unobserved value
Date modified: